Find Starlink 11366

NORAD ID: 61693 Int'l Des: 2024-195 Owner: SPXS Country: US Constellation: starlink operational
LEOCIRCULAR

Live-Position

3D-Globus wird geladen...

Über Starlink 11366

Beschreibung wird geladen...

Nächste Überflüge

Passes for default location (London). Set your location on the main map for personalized predictions.

Höhenverlauf

Loading altitude history...

Zweizeiliger Elementsatz

1 61693U 24195G 26122.36411662 .00001929 00000-0 20805-4 0 9998
2 61693 53.1595 121.6732 0000873 77.1588 282.9527 15.69673382 87461
Epoch: 2. Mai 2026 • Age: 10 hours

Aktueller Status

Höhe 363.4 km
Geschwindigkeit 7.70 km/s
Subsatellitenpunkt 42.05°N, 120.31°E
Startdatum 30. Okt. 2024
Alter 1.5 years
Typ internet

Technische Details

Klassifizierung Payload
Masse 960.00 kg
Trockenmasse 910.00 kg
Gesamtmasse 960.00 kg
Länge 0.30 m
Durchmesser 4.10 m
Spannweite 29.00 m
Form Box + pan
Hersteller SPXS
Bus-Typ Starlink V2MD
Phasenstatus In Orbit
Besitzer/Staat SPXS/US

Most Searched